Tracking 17938 objects as of 22-February-2017
HD Live streaming from Space Station
objects crossing your sky now

FENGYUN 2B AKM

Track FENGYUN 2B AKM now!


NORAD ID: 26460
Int'l Code: 2000-032C
Perigee: 35,710.8 km
Apogee: 35,920.6 km
Inclination: 12.3 °
Period: 1,437.2 minutes
Semi major axis: 42186 km
RCS: 7.9432 m2 (large)
Launch date: June 25, 2000
Source: People's Republic of China (PRC)
Launch site: Xichang Space Center, China (XSC)

Note: This is a ROCKET BODY
Your satellite tracking list
Your tracking list is empty





NASA's NSSDC Master Catalog

Two Line Element Set (TLE):
1 26460U 00032C   17023.76948480 -.00000084 +00000-0 +00000-0 0  9995
2 26460 012.2539 034.5024 0024865 302.0782 057.7279 01.00193458087796
Source of the keplerian elements: AFSPC